[[{"header":{"parameterUnit":"m.s-1","parameterCategory":1,"la1":30.2991,"la2":30.254,"lo1":-89.0895,"lo2":-89.0444,"dy":0.0017,"dx":0.0017,"nx":28,"ny":28,"refTime":"2023-08-13T21:00:00:Z","depth":0,"parameterNumber":2,"parameterNumberName":"U-component_of_WINDS"},"data":[0,0,0,0,0,0,0,0,0,0,0,0,0,0,0,0,0,0,0,0,0,0,0,0,0,0,0,0,0,0,0,0,0,0,0,0,0,0,0,0,0,0,0,0,0,0,0,0,0,0,0,0,0,0,0,0,0,0,1.8758,1.8759,0,1.8874,1.8875,1.8877,1.8908,1.8907,1.8906,1.8906,1.9027,1.9031,1.9034,0,0,0,0,0,0,0,0,0,0,0,0,0,1.8565,1.8569,1.8758,1.8759,1.8761,1.8874,1.8875,1.8877,1.8908,1.8907,1.8906,1.8905,1.9026,1.903,1.9035,0,0,0,0,0,0,0,0,0,0,0,0,0,1.8662,1.857,1.8758,1.879,1.8794,1.8873,1.8875,1.8877,1.8908,1.8907,1.8906,1.8905,1.9024,1.903,1.9035,1.9092,0,0,1.9053,1.9056,0,0,0,0,0,0,0,0,1.8656,1.8669,1.8784,1.8788,1.8793,1.8875,1.8852,1.8949,1.8908,1.8865,1.8906,1.8905,1.8977,1.8987,1.9011,1.9098,1.9103,1.9054,1.9057,1.906,1.9061,0,0,0,0,0,0,0,1.865,1.8664,1.8804,1.8785,1.8791,1.8799,1.8812,1.887,1.8926,1.8869,1.8871,1.8884,1.898,1.9005,1.9014,1.9105,1.9054,1.9059,1.9062,1.9065,1.9242,1.9244,0,0,0,0,0,0,1.8637,1.8658,1.88,1.8807,1.872,1.8803,1.8818,1.885,1.8925,1.8935,1.8885,1.8885,1.8996,1.9007,1.9019,1.9089,1.906,1.9065,1.9068,1.9241,1.9243,1.9244,0,0,0,0,0,0,1.8633,1.865,1.8796,1.8734,1.8753,1.8808,1.8844,1.8853,1.8878,1.8937,1.8948,1.8901,1.8996,1.901,1.9073,1.9093,1.9068,1.9073,1.924,1.9242,1.9243,1.923,0,0,0,0,0,0,1.8627,1.8648,1.8669,1.8734,1.8756,1.8848,1.8845,1.8856,1.8888,1.8889,1.8955,1.8965,1.8996,1.9064,1.9079,1.9101,1.9077,1.9238,1.9241,1.9243,1.9229,1.9231,1.9233,0,0,0,0,0,1.862,1.8662,1.867,1.8687,1.8784,1.8849,1.8861,1.8895,1.889,1.8912,1.895,1.8963,1.9089,1.907,1.9087,1.9111,1.9237,1.924,1.9243,1.9228,1.9231,1.9233,0,0,0,0,0,0,1.8599,1.8671,1.8681,1.8745,1.879,1.8854,1.8883,1.8897,1.8946,1.8946,1.8987,1.9001,1.9061,1.9093,1.9071,1.917,1.9163,1.917,1.9146,1.915,1.9152,1.9142,1.9082,0,0,0,0,0,1.8602,1.8647,1.8708,1.8758,1.878,1.8828,1.8857,1.8879,1.8928,1.8948,1.8991,1.9038,1.9089,1.9121,1.9171,1.9234,1.9248,1.9259,1.9261,1.9262,1.9267,1.9302,1.9307,1.9253,1.9253,1.9253,0,0,1.8608,1.8652,1.8679,1.8755,1.8793,1.884,1.8844,1.8893,1.8929,1.8956,1.9017,1.905,1.9106,1.9169,1.9199,1.9197,1.9285,1.9266,1.9267,1.9271,1.9305,1.931,1.9315,1.9255,1.9255,1.9255,0,0,1.8642,1.8681,1.8727,1.8764,1.8821,1.8852,1.8863,1.8925,1.8947,1.9009,1.9031,1.9074,1.916,1.9198,1.9229,1.9278,1.9292,1.9293,1.9304,1.9338,1.9342,1.9346,1.9362,1.9368,1.9298,1.9298,1.9298,0,1.8642,1.8713,1.8748,1.8797,1.8829,1.8855,1.8902,1.8937,1.9008,1.903,1.9027,1.9135,1.9175,1.9246,1.9258,1.9283,1.9296,1.9286,1.9338,1.9343,1.9347,1.9363,1.9369,1.9298,1.9298,1.9298,1.9298,0,1.8711,1.8759,1.879,1.8856,1.8892,1.8939,1.8982,1.9014,1.9033,1.9065,1.9127,1.9176,1.9235,1.9254,1.9274,1.9329,1.9326,1.933,1.9325,1.9351,1.9367,1.9374,1.9297,1.9297,1.9297,1.9297,0,0,1.8735,1.8819,1.883,1.886,1.8925,1.8964,1.9012,1.9069,1.9096,1.9144,1.9185,1.9257,1.9261,1.9296,1.9321,1.935,1.9385,1.9351,1.9353,1.9355,1.9447,1.9442,1.9449,1.9394,1.9396,1.9397,1.9442,0,1.8777,1.8863,1.8896,1.8967,1.9012,1.9038,1.908,1.9124,1.9155,1.9198,1.9233,1.9282,1.9285,1.9306,1.9336,1.9374,1.9403,1.9371,1.9433,1.9435,1.9417,1.9458,1.9453,1.9494,1.9449,1.945,1.945,0,1.8837,1.8885,1.896,1.9018,1.9039,1.9076,1.913,1.9172,1.9223,1.9243,1.9281,1.9304,1.9355,1.9347,1.9419,1.9396,1.9423,1.9446,1.9448,1.9455,1.9444,1.9464,1.9508,1.9513,1.9461,1.946,1.9459,0,1.8846,1.8929,1.8984,1.901,1.908,1.9105,1.9135,1.9185,1.9217,1.9266,1.9287,1.9341,1.937,1.9411,1.9447,1.9438,1.9516,1.951,1.9534,1.9533,1.9548,1.9547,1.9595,1.9567,1.9567,1.9567,1.9567,0,1.8889,1.8934,1.8989,1.9023,1.9074,1.9112,1.9161,1.9193,1.9237,1.9278,1.9304,1.9342,1.9388,1.9431,1.946,1.9515,1.9528,1.9546,1.9553,1.9543,1.9541,1.9561,1.9559,1.9569,1.9568,1.9568,1.9568,0,1.8907,1.8946,1.9008,1.9069,1.9085,1.912,1.9172,1.9207,1.9238,1.9289,1.9304,1.9354,1.9407,1.9447,1.9516,1.9535,1.9593,1.9601,1.9575,1.9578,1.9599,1.9596,1.9662,1.9672,1.9638,1.9638,1.9638,0,1.8931,1.8966,1.9031,1.906,1.909,1.9136,1.9169,1.9207,1.924,1.93,1.9327,1.9381,1.9427,1.951,1.9553,1.9605,1.9614,1.9634,1.9622,1.9611,1.9614,1.9611,1.9614,1.9635,1.9635,1.9635,1.9635,0,1.897,1.8988,1.9033,1.9086,1.9124,1.9167,1.9211,1.9233,1.928,1.9315,1.9369,1.9404,1.9474,1.9528,1.9585,1.9616,1.9634,1.9639,1.9647,1.9637,1.962,1.9628,1.9578,1.9637,1.9637,1.9637,1.9637,1.9637,1.8992,1.9024,1.9074,1.9124,1.9161,1.9201,1.9235,1.9271,1.9317,1.9376,1.9396,1.9451,1.9501,1.9579,1.9611,1.9655,1.9656,1.9667,1.967,1.9672,1.9671,1.9613,1.9666,1.9666,1.9666,1.9666,1.9666,0,1.9031,1.9064,1.911,1.917,1.9209,1.9222,1.9271,1.9303,1.9351,1.9396,1.944,1.9501,1.9553,1.96,1.9654,1.968,1.9689,1.9693,1.9691,1.9698,1.9668,1.9655,1.9684,1.9684,1.9684,1.9684,1.9684,1.9684,1.9056,1.911,1.9134,1.9207,1.924,1.9294,1.9321,1.9358,1.9394,1.9461,1.9504,1.9533,1.9579,1.9636,1.9684,1.9697,1.9715,1.9717,1.9731,1.9702,1.97,1.9698,1.9686,1.9721,1.9721,1.9757,1.9757,1.9757]},{"header":{"parameterUnit":"m.s-1","parameterCategory":1,"la1":30.2991,"la2":30.254,"lo1":-89.0895,"lo2":-89.0444,"dy":0.0017,"dx":0.0017,"nx":28,"ny":28,"refTime":"2023-08-13T21:00:00:Z","depth":0,"parameterNumber":3,"parameterNumberName":"V-component_of_WINDS"},"data":[0,0,0,0,0,0,0,0,0,0,0,0,0,0,0,0,0,0,0,0,0,0,0,0,0,0,0,0,0,0,0,0,0,0,0,0,0,0,0,0,0,0,0,0,0,0,0,0,0,0,0,0,0,0,0,0,0,0,4.2215,4.2215,0,4.2237,4.2237,4.2237,4.2259,4.226,4.226,4.226,4.2279,4.228,4.228,0,0,0,0,0,0,0,0,0,0,0,0,0,4.2187,4.2188,4.2215,4.2215,4.2215,4.2237,4.2237,4.2237,4.2259,4.226,4.226,4.226,4.2279,4.228,4.228,0,0,0,0,0,0,0,0,0,0,0,0,0,4.2203,4.2188,4.2215,4.2229,4.223,4.2236,4.2237,4.2237,4.2259,4.226,4.226,4.2261,4.2279,4.228,4.228,4.2273,0,0,4.2281,4.2281,0,0,0,0,0,0,0,0,4.2202,4.2204,4.2226,4.2228,4.223,4.2246,4.2234,4.2249,4.2259,4.2248,4.226,4.2261,4.2268,4.2269,4.2272,4.2274,4.2274,4.2281,4.2281,4.2281,4.2281,0,0,0,0,0,0,0,4.2201,4.2203,4.2223,4.2227,4.2229,4.2233,4.2235,4.2237,4.2255,4.2249,4.2251,4.2253,4.2269,4.2272,4.2273,4.2275,4.2281,4.2281,4.2281,4.2282,4.2269,4.2268,0,0,0,0,0,0,4.2198,4.2202,4.2222,4.2224,4.2217,4.2233,4.2236,4.224,4.2255,4.2258,4.2253,4.2254,4.2271,4.2272,4.2273,4.2264,4.2281,4.2282,4.2282,4.2269,4.2268,4.2268,0,0,0,0,0,0,4.2198,4.22,4.2222,4.2213,4.2217,4.2233,4.2237,4.224,4.2243,4.2258,4.2261,4.2253,4.2271,4.2273,4.2272,4.2265,4.2282,4.2282,4.227,4.2269,4.2268,4.2247,0,0,0,0,0,0,4.2197,4.2199,4.2198,4.2213,4.2217,4.2222,4.2237,4.224,4.2244,4.2246,4.2259,4.2261,4.2272,4.2272,4.2273,4.2266,4.2282,4.227,4.2269,4.2268,4.2248,4.2245,4.2243,0,0,0,0,0,4.2196,4.2191,4.2198,4.22,4.2216,4.2221,4.2223,4.2236,4.2244,4.2241,4.225,4.2261,4.2266,4.2271,4.2273,4.2266,4.2271,4.227,4.2268,4.2249,4.2246,4.2243,0,0,0,0,0,0,4.2175,4.2194,4.2201,4.2202,4.221,4.2225,4.2223,4.2233,4.2238,4.2239,4.2254,4.2257,4.2254,4.226,4.2266,4.2258,4.227,4.2269,4.2255,4.2252,4.2249,4.2247,4.2283,0,0,0,0,0,4.217,4.2174,4.219,4.2189,4.2193,4.2207,4.221,4.2219,4.2227,4.2231,4.224,4.2246,4.2249,4.2251,4.2254,4.2249,4.2251,4.2245,4.2242,4.224,4.2239,4.2234,4.2231,4.2264,4.2264,4.2264,0,0,4.2161,4.2172,4.2173,4.2185,4.2192,4.2194,4.221,4.2212,4.2213,4.2231,4.2231,4.2237,4.2245,4.2242,4.2241,4.2247,4.223,4.2238,4.2236,4.2236,4.2232,4.2229,4.2226,4.2263,4.2263,4.2263,0,0,4.2145,4.2154,4.2153,4.216,4.2171,4.218,4.2179,4.2193,4.2198,4.2198,4.2211,4.2211,4.2217,4.2221,4.2224,4.2207,4.2216,4.2208,4.2194,4.2189,4.2186,4.2184,4.2176,4.2173,4.2206,4.2206,4.2206,0,4.2132,4.2137,4.2152,4.2153,4.2156,4.2172,4.217,4.2176,4.2186,4.2188,4.2195,4.22,4.2207,4.2203,4.2199,4.2201,4.22,4.2206,4.2186,4.2183,4.2181,4.2174,4.2171,4.2205,4.2205,4.2205,4.2206,0,4.2119,4.2122,4.212,4.213,4.2134,4.2133,4.2146,4.2147,4.2155,4.2163,4.2162,4.217,4.2174,4.2174,4.2183,4.2171,4.2174,4.2183,4.2195,4.2177,4.217,4.2167,4.2204,4.2204,4.2204,4.2205,0,0,4.2092,4.2109,4.2108,4.2111,4.2123,4.2125,4.2124,4.2129,4.2129,4.2135,4.2133,4.2136,4.2144,4.2147,4.2155,4.2151,4.2134,4.216,4.216,4.2154,4.212,4.2112,4.2109,4.214,4.214,4.214,4.2118,0,4.2077,4.2078,4.2089,4.2086,4.2087,4.2101,4.21,4.2106,4.2113,4.2113,4.212,4.2122,4.2132,4.2134,4.213,4.2137,4.2127,4.2139,4.2137,4.2137,4.2134,4.2106,4.2099,4.2079,4.2116,4.2116,4.2115,0,4.2061,4.2066,4.2062,4.2072,4.2073,4.2072,4.2076,4.2077,4.2083,4.2088,4.209,4.21,4.2097,4.2108,4.2103,4.2111,4.211,4.2113,4.2112,4.2112,4.2124,4.2103,4.2073,4.2069,4.2112,4.2112,4.2112,0,4.2039,4.2045,4.2043,4.2046,4.2058,4.2056,4.2061,4.2067,4.2068,4.2071,4.2072,4.2074,4.2075,4.2076,4.2085,4.2092,4.2078,4.209,4.208,4.208,4.2076,4.2076,4.2044,4.2078,4.2078,4.2078,4.2078,0,4.2021,4.2018,4.2033,4.2032,4.2028,4.2041,4.2036,4.2042,4.2047,4.2045,4.2057,4.2055,4.2067,4.2066,4.2073,4.2066,4.2067,4.2069,4.2071,4.2068,4.2067,4.2067,4.2068,4.2077,4.2077,4.2077,4.2077,0,4.1997,4.2007,4.2006,4.2016,4.2019,4.2015,4.2023,4.2021,4.2028,4.2026,4.2026,4.2036,4.2035,4.2043,4.2044,4.2048,4.2038,4.2042,4.2036,4.2037,4.2026,4.2026,4.1991,4.1986,4.2024,4.2024,4.2024,0,4.1984,4.1982,4.1992,4.1992,4.1996,4.1997,4.1998,4.2009,4.2009,4.2014,4.2011,4.2011,4.2011,4.2008,4.2014,4.2014,4.2018,4.2005,4.2018,4.2014,4.2015,4.2015,4.2014,4.2003,4.2002,4.2002,4.2002,0,4.1961,4.1965,4.1967,4.197,4.1971,4.1973,4.1977,4.1976,4.1987,4.1987,4.1986,4.1986,4.1986,4.1984,4.1985,4.1988,4.1995,4.1998,4.1995,4.1991,4.1987,4.1987,4.2028,4.1998,4.1999,4.1999,4.1999,4.1999,4.1941,4.1939,4.1945,4.1945,4.1949,4.1951,4.1949,4.1955,4.1955,4.1956,4.1962,4.1959,4.1962,4.1963,4.1965,4.1962,4.1967,4.1964,4.1963,4.1961,4.1959,4.1988,4.1962,4.1962,4.1962,4.1962,4.1962,0,4.1917,4.1921,4.1921,4.1925,4.1925,4.1933,4.1936,4.1935,4.1932,4.1935,4.1935,4.1932,4.193,4.1936,4.1934,4.193,4.1933,4.1929,4.1929,4.1929,4.1955,4.1956,4.1926,4.1926,4.1926,4.1926,4.1926,4.1926,4.1904,4.19,4.1905,4.1901,4.1905,4.1903,4.1904,4.1904,4.1906,4.1903,4.1902,4.1905,4.1908,4.1906,4.1904,4.1905,4.1903,4.1897,4.19,4.1924,4.1927,4.1931,4.1932,4.1897,4.1897,4.1874,4.1874,4.1874]}]]